[[{"header":{"parameterUnit":"m.s-1","parameterCategory":1,"la1":30.2992,"la2":30.254,"lo1":-89.0895,"lo2":-89.0443,"dy":0.0025,"dx":0.0025,"nx":19,"ny":19,"refTime":"2026-04-09T21:00:00:Z","depth":0,"parameterNumber":2,"parameterNumberName":"U-component_of_WINDS"},"data":[0,0,0,-6.9645,-6.9646,-6.9686,-6.9686,-6.9779,-6.978,0,0,0,0,0,0,0,0,0,0,0,-6.9659,-6.966,-6.9645,-6.9647,-6.9686,-6.9686,-6.9779,-6.978,0,0,0,0,0,0,0,0,0,0,0,-6.9658,-6.966,-6.9662,-6.9647,-6.9686,-6.9686,-6.9779,-6.9734,0,0,0,0,0,0,0,0,0,0,-6.9688,-6.9725,-6.9659,-6.9662,-6.9647,-6.9686,-6.9686,-6.9731,-6.9736,-6.9779,0,-6.9824,0,-6.9804,-6.9789,-6.979,0,0,0,-6.9627,-6.9721,-6.9709,-6.9662,-6.9648,-6.9686,-6.9663,-6.9733,-6.974,-6.9787,-6.9825,-6.9827,-6.9806,-6.979,-6.9791,-7.0103,-7.0106,0,0,-6.9625,-6.9679,-6.9704,-6.9714,-6.9711,-6.9662,-6.9664,-6.9737,-6.9781,-6.9825,-6.9829,-6.9807,-6.9791,-6.9792,-7.0101,-7.0104,0,0,0,-6.9632,-6.9679,-6.9663,-6.9711,-6.9716,-6.9663,-6.9666,-6.9778,-6.9769,-6.9829,-6.9808,-6.9792,-6.9793,-7.0098,-7.0102,-7.0271,0,0,0,-6.9629,-6.9682,-6.9664,-6.9697,-6.9715,-6.9747,-6.9707,-6.9764,-6.977,-6.9808,-6.9792,-6.9795,-7.0096,-7.01,-7.026,-7.034,0,0,0,-6.9647,-6.9684,-6.9699,-6.97,-6.9719,-6.9745,-6.9739,-6.9764,-6.9759,-6.979,-6.9795,-7.0094,-7.0099,-7.0251,-7.0325,-7.0438,0,0,0,-6.9682,-6.9848,-6.9702,-6.988,-6.9719,-6.985,-6.9738,-6.9832,-6.9879,-6.9792,-7.0096,-7.0102,-7.0248,-7.0316,-7.0429,-7.0541,-7.0594,0,0,-6.9921,-6.9878,-6.9978,-6.985,-7.002,-6.9839,-7.0034,-7.0025,-6.9979,-7.0065,-7.0071,-7.0264,-7.0324,-7.0436,-7.0874,-7.0916,0,0,0,-7.0073,-7.0145,-7.0178,-7.0226,-7.0225,-7.0231,-7.0187,-7.0184,-7.0254,-7.0034,-7.0334,-7.0369,-7.0432,-7.0483,-7.0519,-7.0569,-7.0128,-7.0128,-7.0127,-7.0486,-7.042,-7.0581,-7.052,-7.0568,-7.0523,-7.0556,-7.0544,-7.0461,-7.0534,-7.0558,-7.0832,-7.0894,-7.092,-7.0974,-7.0614,-7.0614,-7.0615,-7.0615,-7.0829,-7.0921,-7.081,-7.0926,-7.0855,-7.0952,-7.0916,-7.0855,-7.0935,-7.0807,-7.086,-7.0725,-7.0969,-7.1012,-7.0627,-7.0625,-7.0624,-7.0623,-7.0622,-7.1091,-7.1123,-7.1118,-7.1182,-7.124,-7.1172,-7.1255,-7.1187,-7.1124,-7.1176,-7.1194,-7.1191,-7.1178,-7.119,-7.1191,-7.1192,-7.1193,-7.1193,-7.1194,-7.1362,-7.1352,-7.143,-7.1445,-7.1468,-7.149,-7.145,-7.147,-7.1476,-7.142,-7.1419,-7.133,-7.1006,-7.0925,-7.1208,-7.1206,-7.1204,-7.1203,-7.1202,-7.173,-7.1637,-7.1757,-7.1781,-7.1794,-7.1856,-7.177,-7.1819,-7.1827,-7.187,-7.1771,-7.1543,-7.1494,-7.1465,-7.1397,-7.1785,-7.1785,-7.1785,-7.1785,-7.1948,-7.1919,-7.2027,-7.2069,-7.2103,-7.2039,-7.2178,-7.215,-7.2105,-7.2106,-7.2041,-7.1946,-7.192,-7.1886,-7.1848,-7.1783,-7.2261,-7.2262,-7.2262,-7.217,-7.2141,-7.2271,-7.2228,-7.2234,-7.2242,-7.237,-7.2424,-7.2354,-7.228,-7.2105,-7.2085,-7.1931,-7.1885,-7.1803,-7.1746,-7.1626,0,0]},{"header":{"parameterUnit":"m.s-1","parameterCategory":1,"la1":30.2992,"la2":30.254,"lo1":-89.0895,"lo2":-89.0443,"dy":0.0025,"dx":0.0025,"nx":19,"ny":19,"refTime":"2026-04-09T21:00:00:Z","depth":0,"parameterNumber":3,"parameterNumberName":"V-component_of_WINDS"},"data":[0,0,0,1.888,1.8879,1.884,1.8839,1.8769,1.8768,0,0,0,0,0,0,0,0,0,0,0,1.8881,1.888,1.888,1.8878,1.884,1.8839,1.8769,1.8768,0,0,0,0,0,0,0,0,0,0,0,1.8881,1.888,1.8879,1.8878,1.884,1.8839,1.8769,1.8805,0,0,0,0,0,0,0,0,0,0,1.8846,1.8838,1.8881,1.8879,1.8878,1.884,1.8839,1.8807,1.8803,1.8779,0,1.8756,0,1.8762,1.8762,1.8762,0,0,0,1.8885,1.8842,1.8841,1.8879,1.8877,1.884,1.8859,1.8805,1.88,1.8773,1.8756,1.8754,1.876,1.8762,1.8761,1.8607,1.8606,0,0,1.8887,1.8867,1.8844,1.8837,1.8845,1.886,1.8858,1.8802,1.8781,1.8755,1.8752,1.8759,1.8761,1.8761,1.8608,1.8606,0,0,0,1.8889,1.8868,1.887,1.884,1.8835,1.8859,1.8856,1.8784,1.8786,1.8752,1.8758,1.8761,1.876,1.8609,1.8607,1.8538,0,0,0,1.889,1.887,1.887,1.8858,1.8835,1.8809,1.8838,1.879,1.8784,1.8759,1.8761,1.8759,1.861,1.8608,1.8542,1.8506,0,0,0,1.8887,1.8869,1.8861,1.8857,1.884,1.8811,1.881,1.8789,1.8788,1.8762,1.8759,1.8611,1.8608,1.8546,1.8513,1.8459,0,0,0,1.8876,1.8797,1.8859,1.8774,1.884,1.877,1.881,1.8758,1.8728,1.876,1.861,1.8607,1.8547,1.8517,1.8464,1.8409,1.8386,0,0,1.8765,1.8783,1.8734,1.8789,1.8703,1.8777,1.868,1.8669,1.8683,1.8631,1.8627,1.8541,1.8513,1.846,1.8265,1.8247,0,0,0,1.8692,1.8657,1.8638,1.8611,1.8604,1.8594,1.8602,1.8598,1.8556,1.8653,1.8509,1.8493,1.8463,1.8438,1.8422,1.8396,1.8596,1.8596,1.8596,1.8502,1.8529,1.8451,1.8473,1.8446,1.8457,1.8437,1.8434,1.8465,1.8431,1.8414,1.8293,1.8263,1.8251,1.8224,1.839,1.839,1.839,1.8389,1.834,1.8293,1.8343,1.8284,1.8313,1.8262,1.8271,1.8296,1.8252,1.8307,1.8281,1.8336,1.823,1.8207,1.8384,1.8385,1.8386,1.8386,1.8387,1.8216,1.8198,1.8199,1.8165,1.8135,1.8161,1.8118,1.8145,1.817,1.8145,1.813,1.8131,1.8134,1.8137,1.8137,1.8136,1.8136,1.8136,1.8136,1.8085,1.8089,1.8051,1.8041,1.8029,1.8016,1.803,1.8017,1.801,1.8032,1.8032,1.8066,1.8216,1.8251,1.8129,1.813,1.8131,1.8132,1.8132,1.7904,1.7951,1.7892,1.788,1.7872,1.7841,1.7879,1.7852,1.7846,1.7824,1.7866,1.7974,1.7992,1.8005,1.8034,1.7862,1.7862,1.7862,1.7862,1.7797,1.7812,1.776,1.7739,1.7722,1.7752,1.7683,1.7695,1.7712,1.771,1.774,1.7783,1.7795,1.7806,1.7823,1.785,1.7636,1.7636,1.7636,1.7687,1.7702,1.7638,1.7661,1.7658,1.7654,1.759,1.7563,1.7593,1.7627,1.7709,1.7718,1.7787,1.7809,1.7839,1.7865,1.7916,0,0]}]]